#timestamp,LO_Frequency,Hit,StdDev 
1608660295.9,286046987.2,P
1608660315.7,286046985.6,P
1608660335.6,286046985.6,P
1608660355.4,286046986.5,Y
1608660375.2,286046999.3,P
1608660395.1,286046999.0,N
1608660396.0,286046999.0,N
1608660415.8,286047000.6,N
1608660435.7,286046998.7,N
1608660455.5,286046997.1,N
1608660475.3,286046997.4,N
1608660495.2,286046996.7,N
1608660515.0,286046999.1,N
1608660515.9,286046999.1,N
1608660535.8,286046996.8,N
1608660555.6,286046997.2,N
1608660575.4,286046997.4,N
1608660595.3,286046997.8,N
1608660615.1,286046997.5,N
1608660616.0,286046997.5,N
1608660635.8,286046995.6,N
1608660655.7,286046996.3,N
1608660675.5,286046993.6,N
1608660695.3,286046993.7,N
1608660715.2,286046995.9,N
1608660735.0,286046995.4,N
1608660735.9,286046995.4,N
1608660755.8,286046995.7,N
1608660775.6,286046993.8,N
1608660795.4,286046996.3,N
1608660815.3,286046993.9,N
1608660835.1,286046995.8,N
1608660855.9,286046994.6,N
1608660875.7,286046992.1,Y
1608660895.5,286046997.3,P
1608660915.4,286046997.2,P
1608660935.2,286046996.9,P
1608660955.0,286046996.1,Y
1608660955.9,286046996.1,P
1608660975.8,286046996.8,P
1608660995.6,286046997.4,P
1608661015.5,286046997.7,Y
1608661035.3,286046999.8,P
1608661055.1,286047002.4,N
1608661075.9,286047001.7,N
1608661095.7,286046999.8,N
1608661115.5,286047000.3,N
1608661135.4,286047002.7,N
1608661155.2,286047000.1,N
1608661175.1,286047000.4,N
1608661176.0,286047000.4,N
1608661195.8,286046999.8,N
1608661215.6,286047001.3,N
1608661235.5,286047003.9,N
1608661255.3,286047001.6,N
1608661275.1,286047002.8,N
1608661295.9,286046996.5,N
1608661315.7,286046997.1,N
1608661335.6,286046997.2,N
1608661355.4,286046997.8,N
1608661375.2,286046998.4,N
1608661395.1,286046999.5,N
1608661396.0,286046999.5,N
1608661415.8,286046995.5,N
1608661435.6,286046995.4,N
1608661455.5,286046993.9,N
1608661475.3,286046992.0,Y
1608661495.2,286046991.9,P
1608661515.9,286046990.1,N
1608661535.7,286046990.6,N
1608661555.6,286046989.6,N
1608661575.4,286046989.0,Y
1608661595.3,286047000.7,P
1608661615.1,286046998.4,N
1608661616.0,286046998.4,N
1608661635.8,286046999.0,N
1608661655.7,286046999.4,N
1608661675.5,286047000.6,N
1608661695.3,286046998.2,N
1608661715.2,286046999.1,N
1608661735.0,286046998.2,N
1608661735.9,286046998.2,N
1608661755.8,286046999.1,N
1608661775.6,286046998.1,N
1608661795.4,286046998.5,N
1608661815.3,286047001.9,N
1608661835.1,286047002.6,N
1608661855.8,286047001.1,N
1608661875.7,286046998.0,N
1608661895.5,286046997.4,N
1608661915.4,286047000.4,N
1608661935.2,286046998.1,N
1608661955.0,286046998.7,N
1608661955.9,286046998.7,N
1608661975.8,286046999.9,N
1608661995.6,286046998.2,N
1608662015.4,286046996.5,N
1608662035.3,286046998.0,N
1608662055.1,286046997.9,N
1608662075.9,286046997.7,N
1608662095.7,286046998.0,N
1608662115.5,286046995.1,N
1608662135.4,286046995.6,N
1608662155.2,286046996.7,N
1608662175.0,286046997.6,N
1608662175.9,286046997.6,N
1608662195.8,286046995.8,N
1608662215.6,286046994.6,Y
1608662235.5,286046995.6,P
1608662255.3,286046994.4,P
1608662275.1,286046995.7,N
1608662295.9,286046995.3,Y
1608662315.7,286047001.1,P
1608662335.5,286047001.0,N
1608662355.4,286046999.8,N
1608662375.2,286047000.2,N
1608662395.1,286047000.6,N
1608662396.0,286047000.6,N
1608662415.8,286046999.3,N
1608662435.6,286046996.6,N
1608662455.5,286046999.3,N
1608662475.3,286046997.3,N
1608662495.1,286046997.9,N
1608662515.9,286046997.8,N
1608662535.7,286046996.0,N
1608662555.6,286046995.5,N
1608662575.4,286046996.1,N
1608662595.2,286046993.7,Y
1608662615.1,286046997.3,P
1608662616.0,286046997.3,P
1608662635.8,286046996.8,P
1608662655.7,286046996.6,Y
1608662675.5,286047000.8,P
1608662695.3,286047003.7,N
1608662715.2,286047004.1,N
1608662735.0,286047003.1,N
1608662735.9,286047003.1,N
1608662755.7,286047003.1,N
1608662775.6,286047002.0,N
1608662795.4,286046998.8,N
1608662815.3,286046998.1,N
1608662835.1,286046996.9,N
1608662836.0,286046996.9,N
1608662855.8,286046995.1,N
1608662875.7,286046996.2,N
1608662895.5,286046994.1,N
1608662915.3,286046996.2,N
1608662935.2,286046995.4,N
1608662955.0,286046996.3,N
1608662955.9,286046996.3,N
1608662975